RH
45 65 66 64 63 63 59 54 44 33 31 33 32 28 24 24 24 26 25 23 21 23 25 31 42 52 60 61 67 74 79 79 78 84 85 89 96 99 99 84 73 67 56
46 62 71 69 63 62 62 62 58 51 39 36 36 36 29 25 25 25 26 26 25 23 24 29 38 51 62 63 70 73 72 76 72 72 74 74 92 99 99 94 75 70 60
55 72 88 82 78 74 71 67 64 58 51 43 35 37 41 32 30 28 27 28 28 27 26 27 33 37 47 61 64 74 75 69 68 67 64 67 83 100 96 97 83 71 63
40 39 64 91 94 85 88 82 76 68 67 62 56 50 43 46 37 35 32 34 31 29 29 28 31 36 37 42 43 53 68 67 66 59 58 58 71 94 98 96 90 78 62
35 35 34 34 60 89 95 94 93 88 81 80 78 83 78 68 61 51 42 44 48 38 32 32 32 36 38 37 42 41 40 43 54 61 51 47 64 86 95 96 97 89 68
34 35 34 27 30 34 75 88 92 90 91 93 94 91 99 91 72 59 75 64 51 53 44 35 37 35 35 36 38 42 41 35 32 44 57 45 51 76 94 99 100 95 88
36 36 34 23 22 25 28 60 83 88 88 90 97 98 97 95 96 88 75 82 54 57 51 46 44 36 36 34 32 36 35 38 32 28 36 47 45 56 86 96 98 87 94
36 37 22 12 13 18 22 29 37 56 81 97 92 86 98 99 92 74 68 73 71 66 57 60 82 72 56 49 39 36 31 23 25 27 25 33 38 48 83 81 97 99 98
38 37 14 10 9 10 12 15 20 25 28 31 33 41 45 52 60 65 72 77 84 74 70 67 83 72 76 64 62 37 36 33 20 22 23 38 29 43 75 82 88 100 99
41 34 15 10 9 10 10 9 8 10 13 18 21 33 42 29 30 33 34 50 76 70 79 88 80 80 77 78 75 57 43 41 34 24 20 15 20 34 56 72 94 98 98
48 46 16 14 12 9 6 8 9 7 6 6 7 8 10 15 18 24 34 34 31 40 71 89 83 63 75 74 86 73 48 45 41 28 26 20 16 21 37 65 87 89 98
26 34 41 10 10 8 8 6 5 6 8 8 7 7 5 6 6 7 9 16 13 20 20 29 44 64 73 71 65 57 48 48 43 37 32 26 20 22 29 51 72 95 92
13 11 8 6 10 7 5 6 6 5 9 12 15 14 12 9 10 11 14 15 16 14 14 14 28 53 64 67 67 70 50 47 46 45 42 38 28 22 30 35 55 82 88
12 10 8 7 5 6 6 4 4 6 7 14 19 26 28 26 27 27 26 31 52 52 36 29 28 26 57 58 54 62 58 58 60 51 49 48 38 29 29 60 65 65 79
6 5 6 7 6 4 5 7 6 8 9 14 22 32 33 33 35 33 28 28 32 58 63 62 59 46 38 45 54 66 64 67 69 69 53 54 50 37 30 48 65 72 84
6 6 4 5 8 7 6 9 12 10 13 16 20 32 39 37 38 37 35 36 32 31 42 65 62 72 67 62 80 70 81 79 79 72 62 58 57 48 35 39 58 69 81
21 23 19 21 20 18 15 13 15 15 18 18 22 22 34 38 41 37 33 31 28 32 41 58 66 69 83 83 72 60 64 74 73 76 68 58 62 58 44 38 57 65 72
59 55 48 45 42 36 29 24 26 23 24 28 34 42 52 55 49 52 51 43 35 38 59 70 66 82 87 85 84 80 77 73 82 84 67 56 65 63 54 46 58 72 77
82 77 70 65 61 59 57 56 52 48 51 48 54 54 54 62 62 60 55 63 63 63 68 67 69 75 80 83 88 84 82 96 99 95 83 56 64 66 57 54 60 82 72
85 76 71 75 77 74 79 75 71 73 74 74 70 69 69 68 67 74 76 71 72 90 87 79 82 99 98 99 100 99 95 91 99 100 85 75 70 72 61 56 80 82 84
80 73 69 61 64 76 80 88 89 84 80 87 93 97 96 100 99 100 100 97 98 84 92 99 99 96 100 99 96 97 99 94 97 100 94 78 78 72 65 55 82 84 86
56 62 79 83 73 63 61 65 72 86 91 97 96 97 100 100 98 100 100 100 96 100 99 99 95 96 100 91 94 98 100 100 100 98 99 82 79 77 70 74 76 92 99
11 10 11 12 17 33 58 75 74 66 72 80 88 95 97 99 99 98 96 99 100 97 90 100 99 99 97 93 88 99 94 97 99 100 97 88 88 82 75 75 83 99 99
12 12 12 12 11 11 10 11 17 41 62 62 57 74 85 91 95 99 99 100 99 99 99 95 98 100 99 97 86 99 96 100 99 98 100 100 99 98 98 86 89 99 100
13 13 12 11 10 10 10 10 10 10 10 12 38 70 62 61 89 95 97 98 98 99 99 100 100 100 100 100 99 99 100 96 94 97 94 100 100 100 99 91 98 99 97
13 11 10 9 8 6 6 5 5 5 6 8 10 10 15 63 70 59 91 96 97 98 99 98 99 99 100 99 97 98 100 97 93 97 91 95 100 100 100 88 97 99 100
Wind_Speed
36 40 40 41 40 38 37 36 34 34 33 32 30 28 25 24 22 21 19 18 17 17 16 16 16 17 18 19 20 20 20 20 19 20 21 22 25 21 27 24 21 19 18
32 36 41 43 43 43 42 40 38 37 37 37 35 33 31 29 28 26 24 22 21 20 20 19 17 19 20 20 21 22 22 23 21 21 20 21 22 24 29 27 24 22 21
23 32 38 42 44 45 45 44 42 42 42 42 40 38 36 33 32 30 29 26 25 24 24 24 22 20 21 22 23 25 24 24 23 23 22 22 21 25 28 29 27 25 24
23 26 28 35 42 46 46 45 45 45 44 45 44 43 41 37 36 35 32 31 30 30 28 28 26 26 25 23 22 24 26 25 25 24 24 21 21 23 33 33 32 30 27
27 30 32 33 34 40 46 47 46 47 48 47 46 44 43 41 39 35 45 37 34 33 32 31 32 30 28 27 26 24 25 27 27 27 25 26 24 25 28 32 34 32 30
31 32 33 35 36 38 39 41 41 44 50 52 44 50 47 47 46 41 52 45 41 37 38 34 34 32 31 31 30 28 27 25 27 28 27 26 26 25 29 35 38 39 35
32 36 37 34 35 36 40 41 43 43 46 47 50 49 56 67 60 38 66 43 45 46 44 39 41 35 33 31 33 32 29 28 26 28 29 28 28 28 30 34 35 39 39
36 38 35 34 34 35 36 39 43 43 43 44 44 47 30 36 31 31 31 35 54 53 51 49 42 36 42 41 43 34 30 28 26 26 28 29 30 31 33 32 37 47 44
37 39 35 33 34 35 36 38 41 44 46 47 46 45 46 47 38 35 33 30 35 43 54 56 36 31 38 50 45 37 34 30 27 26 27 28 30 31 33 34 36 46 43
38 38 35 33 32 33 35 37 39 42 45 46 46 47 44 46 43 44 42 39 38 37 45 46 42 36 37 44 48 44 39 32 31 28 27 26 28 32 35 33 33 42 47
38 40 38 38 37 35 34 35 37 39 41 44 44 45 46 46 45 46 48 46 45 43 42 44 45 41 35 38 43 51 43 38 33 31 29 27 28 33 35 35 31 34 44
37 38 41 40 37 36 35 36 36 37 38 40 41 42 44 45 46 46 49 49 48 49 46 44 42 39 38 38 38 45 43 40 36 35 33 30 31 33 35 38 36 36 46
36 36 38 37 37 35 35 36 37 36 37 37 36 38 40 42 43 44 45 45 48 48 49 48 46 44 42 44 40 49 46 43 42 40 37 34 33 33 36 39 40 40 42
35 37 38 40 38 36 35 35 36 37 37 36 35 35 36 37 38 39 40 41 41 44 49 50 47 46 45 43 42 48 51 44 42 45 42 38 37 36 36 39 40 42 44
35 36 39 38 37 37 35 35 35 35 37 36 35 34 35 35 36 37 36 37 38 43 46 45 47 45 45 44 42 45 54 54 46 49 47 43 39 39 37 42 43 42 41
33 35 35 36 32 33 35 35 33 33 35 35 36 35 34 34 34 34 36 38 38 42 46 43 46 44 43 44 46 47 57 62 55 53 51 46 43 41 40 42 46 45 43
30 30 30 30 30 31 32 34 33 32 32 33 34 35 35 33 34 32 33 36 38 40 43 41 45 49 47 48 50 53 56 63 59 55 54 49 46 43 42 44 46 46 47
23 24 25 26 28 29 29 30 29 30 33 32 31 33 32 31 34 32 33 35 38 38 40 44 44 48 47 48 51 54 48 51 57 50 50 52 47 46 44 45 45 45 45
17 18 19 20 23 24 23 24 25 26 27 30 29 30 33 34 35 36 37 35 35 36 42 46 47 47 47 49 52 51 52 47 56 52 54 53 51 47 45 44 43 43 45
15 17 18 18 17 16 16 16 17 20 22 25 27 28 31 34 37 37 36 35 36 35 36 42 43 42 41 43 42 44 52 55 52 49 52 52 51 46 44 43 42 39 38
10 11 14 16 20 20 20 18 15 15 19 23 24 24 27 25 29 33 33 34 37 41 38 45 41 41 37 41 37 35 42 53 47 49 56 55 46 45 44 43 42 36 36
11 12 12 13 15 19 22 23 24 22 18 15 20 26 28 30 30 33 35 36 38 37 39 38 43 41 40 43 39 38 36 43 55 50 53 50 48 48 46 44 41 40 40
13 15 16 17 18 19 19 18 18 20 21 23 20 15 19 26 30 31 35 39 38 44 47 45 46 47 49 43 40 38 37 32 34 35 42 44 46 46 44 42 41 43 37
12 14 16 17 19 19 19 20 20 20 18 19 22 23 21 21 16 26 30 34 39 40 41 43 49 47 50 42 50 42 35 38 44 50 39 45 40 46 51 43 42 42 41
14 15 17 18 19 19 19 19 19 19 19 20 18 17 21 27 24 22 13 20 26 28 35 41 45 48 47 46 49 41 36 38 40 41 41 45 43 42 46 43 44 43 44
18 21 22 23 23 23 22 21 20 20 20 19 19 20 20 19 18 25 25 24 16 15 26 29 36 37 37 39 41 40 44 47 44 43 46 49 48 46 50 47 44 44 43
Wind_Direction
251 247 244 244 244 246 246 248 250 251 253 257 258 257 250 249 250 250 250 252 250 252 253 253 254 250 252 254 255 253 253 261 258 256 261 258 259 264 230 229 229 230 238
257 250 248 247 247 246 246 245 246 247 250 252 255 256 254 248 246 246 247 245 247 245 248 251 247 250 247 250 253 255 258 259 260 259 258 258 263 260 225 229 228 231 233
268 258 252 250 251 250 249 248 246 247 248 248 250 253 254 253 250 247 248 247 246 244 243 245 245 244 247 246 249 252 254 257 258 261 261 259 257 249 224 233 231 232 234
283 284 269 258 251 251 251 251 251 251 251 251 251 250 251 252 250 249 247 250 248 247 243 242 242 242 242 246 249 251 252 256 257 258 259 267 262 253 230 228 234 232 233
292 294 288 277 265 258 254 254 253 254 254 254 254 256 255 253 247 244 251 252 249 253 249 244 245 243 243 242 240 243 252 259 257 257 258 257 254 251 241 224 238 235 235
287 294 297 281 268 267 265 258 255 253 253 258 251 258 255 250 248 251 258 250 247 252 248 246 244 244 244 247 247 240 243 250 259 257 254 255 254 252 244 234 244 231 236
290 294 295 284 273 264 261 262 262 259 258 256 259 257 258 246 244 265 248 240 240 249 251 246 247 242 246 247 251 250 244 242 250 256 254 251 252 254 245 241 238 229 233
287 298 292 284 277 271 265 261 260 260 260 260 264 267 271 262 253 264 266 241 248 239 251 245 269 262 242 241 249 247 248 248 246 256 251 250 250 251 244 250 245 233 227
289 292 288 284 279 275 272 268 265 263 260 260 261 261 264 265 264 260 258 253 248 251 245 248 257 259 248 244 248 250 247 248 247 256 256 249 249 247 245 249 250 233 222
287 289 286 284 280 275 272 268 266 265 264 262 262 264 264 266 266 268 264 257 249 253 244 252 252 253 245 246 246 241 248 245 248 250 257 259 252 249 249 249 246 229 223
285 282 285 280 277 276 273 269 265 263 263 264 262 261 261 262 262 261 263 264 262 256 250 248 252 256 246 244 244 238 241 242 241 244 250 257 254 255 250 248 242 236 231
279 277 283 280 274 274 271 272 269 266 263 262 261 261 261 262 263 262 261 260 264 265 262 260 259 254 253 243 241 230 237 242 242 243 245 248 252 255 250 245 244 240 230
276 275 278 278 274 274 273 272 272 269 268 264 261 260 259 260 261 261 260 258 260 262 261 259 254 251 249 242 245 236 234 243 244 241 243 246 247 252 251 246 242 241 240
276 278 277 277 275 272 273 272 273 272 270 267 263 261 260 260 260 260 261 261 257 257 258 258 255 252 250 248 243 233 233 238 245 246 242 243 248 249 248 246 244 242 244
284 281 277 274 272 273 273 271 270 269 270 268 266 262 261 260 260 260 258 256 256 255 259 258 256 254 253 251 247 229 234 238 244 248 242 243 244 248 248 246 246 247 245
289 285 282 278 276 271 271 273 271 269 267 265 264 262 261 262 260 258 256 254 254 256 259 255 260 256 252 248 234 241 242 242 250 246 241 241 242 244 247 248 246 248 246
291 289 286 283 283 278 272 271 273 271 269 264 263 261 258 259 258 256 254 255 256 256 259 259 256 258 250 249 248 246 244 242 249 239 240 238 241 245 247 248 246 249 250
305 299 295 293 289 285 279 275 273 271 270 267 264 261 261 258 258 255 252 252 251 254 257 259 259 258 257 255 251 245 252 244 237 233 236 239 240 242 247 248 249 252 251
338 334 320 309 301 297 294 287 278 270 268 268 265 263 262 259 257 257 257 248 248 254 256 259 257 262 262 256 250 249 246 243 233 235 233 236 239 241 246 248 249 253 257
38 36 24 14 3 343 332 313 292 276 268 266 267 265 263 261 259 258 258 258 257 256 258 255 258 260 258 254 253 245 240 242 238 233 231 233 239 243 246 249 248 251 255
32 31 34 34 35 34 32 21 353 315 289 276 272 268 268 269 266 261 260 259 258 260 264 260 260 256 258 254 258 259 257 242 244 237 231 234 238 241 247 248 246 248 247
16 18 12 9 15 21 34 42 40 29 10 331 298 275 267 265 262 262 260 253 257 254 258 256 260 249 261 257 259 257 263 251 241 240 227 231 237 243 244 243 244 242 247
19 14 12 9 7 6 4 6 17 24 29 23 12 337 299 280 267 261 262 261 256 257 252 258 252 256 254 255 253 248 257 249 234 224 223 235 239 240 241 244 242 238 247
13 10 5 3 1 359 358 358 358 356 2 13 15 16 17 7 302 267 263 257 259 261 264 255 246 248 250 251 248 241 251 241 244 238 242 230 235 243 242 241 240 238 241
3 0 1 358 353 351 349 347 347 347 351 350 348 358 0 5 10 18 351 284 270 269 265 253 243 242 234 233 247 250 239 244 246 243 239 239 240 240 234 238 241 240 238
359 358 355 351 351 351 350 347 344 343 342 338 341 341 340 340 349 352 354 6 352 286 267 270 246 231 226 232 238 244 242 251 249 242 249 239 242 239 241 239 238 239 237